FLOCK 2K-31 (42869 NORAD) Tracking and Keplerian Element Data

This shows tracking and keplerian element data for the satellite.

Feedback or suggestion? Click here.




ElementValue
Catalog42869
NameFLOCK 2K-31
Epoch Orbit23472
Epoch Day261.0987031
Epoch Year2021
RAAN109.4109
Inclination96.8417
Eccentricity0.0009558
Argument of Perigee88.0609
Mean Anonmoly272.1737
Mean Motion15.47706988
Decay Rate0.00015368
L11 42869U 17042AW 21261.09870310 .00015368 00000-0 29801-3 0 9999
L22 42869 96.8417 109.4109 0009558 88.0609 272.1737 15.47706988234720

Live tracking and technical data element details for FLOCK 2K-31 (NORAD 42869). FLOCK 2K-31 can be tracked NOW for your location showing map with azimuth and elevation plus other details from your city location.

Track the satellite on the map from your city or location and see movement details for azimuth, elevation, latitude, longitude, range, height, and movement on the map or in text.







IsCatalogInMostPopularTable: catalog: 42869, numindb: 606
Update: records affected: 1



GetName: 42869 FLOCK 2K-31

Hit Count: updated at: Fri, 24 Sep 2021 17:37:29 GMT